period_start,C,m1,H,J0,J1,J2,J3,J4,J5,JA,JB,JC,JD,JJ,JK,JN,#
2013-10-25 00:00:04,0.07,1.44,0.00,24.69,26.52,29.15,5.88,29.67,1015.15,2048.72,2979.08,2902.01,3120.56,349.96,321.63,12.22,0000 0000 0000 0000 000000
2013-10-25 00:01:05,0.01,1.44,0.00,24.69,26.52,29.10,5.96,29.88,1015.15,2048.71,2979.03,2902.00,3120.25,350.58,322.20,12.22,0000 0000 0000 0000 000000
2013-10-25 00:02:05,0.05,1.44,0.00,24.67,26.52,29.10,5.81,29.67,1015.15,2048.65,2978.85,2901.89,3120.09,349.38,321.19,12.23,0000 0000 0000 0000 000000
2013-10-25 00:03:05,0.07,1.44,0.00,24.69,26.52,29.11,5.89,29.71,1015.16,2048.60,2978.45,2901.64,3120.03,349.45,321.48,12.23,0000 0000 0000 0000 000000
2013-10-25 00:04:06,0.07,1.44,0.00,24.69,26.51,29.20,5.95,29.92,1015.16,2048.68,2978.21,2901.41,3120.00,350.23,321.88,12.24,0000 0000 0000 0000 000000
2013-10-25 00:05:06,0.18,1.45,0.00,24.66,26.51,29.12,6.12,29.88,1015.15,2048.70,2978.08,2901.22,3119.96,350.46,322.12,12.25,0000 0000 0000 0000 000000
2013-10-25 00:06:06,0.07,1.45,0.00,24.67,26.51,29.12,5.84,29.83,1015.15,2048.54,2978.03,2901.09,3119.70,349.83,321.30,12.25,0000 0000 0000 0000 000000
2013-10-25 00:07:06,-0.02,1.45,0.00,24.66,26.50,29.10,6.09,29.71,1015.15,2048.61,2978.01,2901.03,3119.41,350.48,322.13,12.26,0000 0000 0000 0000 000000
2013-10-25 00:08:06,0.11,1.45,0.00,24.69,26.50,29.11,6.01,29.75,1015.15,2048.70,2977.92,2901.01,3119.21,349.47,321.08,12.26,0000 0000 0000 0000 000000
2013-10-25 00:09:07,0.10,1.45,0.00,24.71,26.50,29.09,5.58,29.67,1015.15,2048.73,2977.51,2900.99,3119.08,348.38,320.33,12.27,0000 0000 0000 0000 000000
2013-10-25 00:10:07,0.11,1.45,0.00,24.71,26.50,29.13,5.73,29.63,1015.15,2048.74,2977.19,2900.98,3119.03,348.92,320.65,12.27,0000 0000 0000 0000 000000
2013-10-25 00:11:07,0.07,1.45,0.00,24.72,26.50,29.13,6.01,30.00,1015.15,2048.69,2977.07,2900.87,3119.01,350.25,321.86,12.28,0000 0000 0000 0000 000000
2013-10-25 00:12:07,0.01,1.45,0.00,24.72,26.50,29.10,5.98,29.88,1015.15,2048.65,2977.02,2900.57,3119.00,350.16,321.29,12.29,0000 0000 0000 0000 000000
2013-10-25 00:13:08,0.06,1.45,0.00,24.70,26.50,29.16,6.11,29.88,1015.15,2048.68,2977.00,2900.33,3118.97,350.65,322.55,12.29,0000 0000 0000 0000 000000
2013-10-25 00:14:08,0.10,1.45,0.00,24.70,26.50,29.12,5.95,29.79,1015.15,2048.72,2976.78,2900.16,3118.86,349.91,321.88,12.30,0000 0000 0000 0000 000000
2013-10-25 00:15:08,0.12,1.45,0.00,24.69,26.50,29.09,6.05,29.96,1015.15,2048.83,2976.39,2900.07,3118.52,350.48,322.42,12.30,0000 0000 0000 0000 000000
2013-10-25 00:16:08,0.21,1.45,0.00,24.70,26.50,29.09,6.08,29.79,1015.15,2048.84,2976.16,2900.03,3118.21,350.28,322.16,12.31,0000 0000 0000 0000 000000
2013-10-25 00:17:08,0.07,1.45,0.00,24.72,26.50,29.13,6.04,29.96,1015.14,2048.84,2976.05,2900.00,3118.07,349.85,321.04,12.32,0000 0000 0000 0000 000000
2013-10-25 00:18:09,0.04,1.45,0.00,24.72,26.50,29.12,5.95,29.88,1015.14,2048.76,2976.02,2899.98,3118.03,350.05,321.67,12.32,0000 0000 0000 0000 000000
2013-10-25 00:19:09,-0.05,1.45,0.00,24.72,26.50,29.14,5.85,29.71,1015.14,2048.74,2975.96,2899.97,3118.00,349.88,321.52,12.33,0000 0000 0000 0000 000000
2013-10-25 00:20:09,0.00,1.45,0.00,24.71,26.50,29.12,5.98,29.88,1015.13,2048.71,2975.62,2899.73,3117.96,350.55,322.33,12.33,0000 0000 0000 0000 000000
2013-10-25 00:21:09,0.12,1.45,0.00,24.71,26.50,29.14,5.79,29.71,1015.12,2048.69,2975.24,2899.36,3117.80,350.23,321.85,12.34,0000 0000 0000 0000 000000
2013-10-25 00:22:10,0.14,1.45,0.00,24.69,26.50,29.13,6.03,29.92,1015.05,2048.64,2975.08,2899.14,3117.45,349.92,321.56,12.35,0000 0000 0000 0000 000000
2013-10-25 00:23:10,0.09,1.45,0.00,24.71,26.50,29.18,6.12,30.04,1015.04,2048.61,2975.03,2899.05,3117.21,350.82,322.47,12.35,0000 0000 0000 0000 000000
2013-10-25 00:24:10,0.02,1.45,0.00,24.72,26.50,29.13,6.02,29.79,1015.03,2048.68,2974.93,2899.01,3117.09,349.64,321.24,12.36,0000 0000 0000 0000 000000
2013-10-25 00:25:11,0.12,1.46,0.00,24.72,26.50,29.12,5.76,29.67,1015.02,2048.72,2974.55,2899.00,3117.03,349.54,321.17,12.36,0000 0000 0000 0000 000000
2013-10-25 00:26:11,0.11,1.46,0.00,24.69,26.50,29.13,5.90,29.58,1014.99,2048.75,2974.22,2898.99,3117.00,349.92,321.86,12.37,0000 0000 0000 0000 000000
2013-10-25 00:27:11,0.05,1.46,0.00,24.67,26.50,29.11,6.11,29.88,1015.01,2048.86,2974.08,2898.99,3116.99,350.95,322.52,12.37,0000 0000 0000 0000 000000
2013-10-25 00:28:11,0.11,1.46,0.00,24.69,26.50,29.15,5.84,29.54,1015.02,2048.89,2974.03,2898.91,3116.99,350.86,322.44,12.38,0000 0000 0000 0000 000000
2013-10-25 00:29:11,0.04,1.46,0.00,24.70,26.50,29.14,5.92,29.63,1015.07,2048.93,2973.99,2898.75,3116.91,350.53,322.11,12.39,0000 0000 0000 0000 000000
2013-10-25 00:30:12,0.10,1.46,0.00,24.74,26.50,29.18,5.77,29.88,1015.04,2048.92,2973.90,2898.38,3116.54,349.76,321.36,12.39,0000 0000 0000 0000 000000
2013-10-25 00:31:12,0.15,1.46,0.00,24.72,26.50,29.14,5.98,29.88,1015.00,2048.94,2973.63,2898.16,3116.23,350.57,321.81,12.40,0000 0000 0000 0000 000000
2013-10-25 00:32:12,0.15,1.46,0.00,24.72,26.50,29.08,5.97,29.92,1015.05,2048.96,2973.29,2898.07,3116.10,350.66,322.21,12.40,0000 0000 0000 0000 000000
2013-10-25 00:33:12,0.13,1.46,0.00,24.74,26.50,29.10,5.96,29.71,1015.08,2048.98,2973.10,2898.02,3116.05,349.21,321.09,12.41,0000 0000 0000 0000 000000
2013-10-25 00:34:13,0.04,1.46,0.00,24.74,26.49,29.11,6.12,29.96,1015.10,2048.95,2973.02,2898.00,3116.02,350.88,322.57,12.42,0000 0000 0000 0000 000000
2013-10-25 00:35:13,0.01,1.46,0.00,24.75,26.49,29.17,6.18,29.88,1015.09,2048.96,2973.00,2898.00,3116.00,351.11,322.74,12.42,0000 0000 0000 0000 000000
2013-10-25 00:36:13,0.00,1.46,0.00,24.77,26.49,29.11,6.06,29.75,1015.13,2048.95,2972.78,2897.99,3115.96,350.37,322.07,12.43,0000 0000 0000 0000 000000
2013-10-25 00:37:13,0.03,1.46,0.00,24.73,26.49,29.16,5.82,29.54,1015.15,2048.93,2972.39,2897.93,3115.86,349.61,321.26,12.43,0000 0000 0000 0000 000000
2013-10-25 00:38:14,0.08,1.46,0.00,24.72,26.49,29.14,5.83,29.79,1015.14,2048.94,2972.16,2897.72,3115.68,349.27,320.95,12.44,0000 0000 0000 0000 000000
2013-10-25 00:39:14,0.13,1.46,0.00,24.71,26.49,29.13,5.94,29.88,1015.14,2048.94,2972.07,2897.38,3115.32,350.98,322.55,12.44,0000 0000 0000 0000 000000
2013-10-25 00:40:14,0.14,1.46,0.00,24.72,26.49,29.11,6.01,29.71,1015.15,2048.96,2972.01,2897.15,3115.13,350.64,322.23,12.45,0000 0000 0000 0000 000000
2013-10-25 00:41:15,0.09,1.46,0.00,24.74,26.49,29.11,6.03,29.88,1015.14,2048.96,2971.96,2897.06,3115.05,349.99,321.60,12.46,0000 0000 0000 0000 000000
2013-10-25 00:42:15,0.04,1.46,0.00,24.73,26.49,29.11,5.78,29.96,1015.15,2048.93,2971.54,2897.02,3115.01,349.27,321.27,12.46,0000 0000 0000 0000 000000
2013-10-25 00:43:15,0.05,1.46,0.00,24.72,26.48,29.09,5.82,29.96,1015.13,2048.92,2971.21,2897.00,3115.00,348.59,320.21,12.47,0000 0000 0000 0000 000000
2013-10-25 00:44:16,0.04,1.46,0.00,24.72,26.48,29.17,5.92,29.96,1015.15,2048.93,2971.07,2896.99,3114.95,350.30,321.90,12.47,0000 0000 0000 0000 000000
2013-10-25 00:45:16,0.04,1.46,0.00,24.71,26.48,29.09,5.94,29.58,1015.14,2048.92,2971.01,2896.91,3114.75,350.39,322.00,12.48,0000 0000 0000 0000 000000
2013-10-25 00:46:16,0.05,1.47,0.00,24.72,26.48,29.05,5.69,29.50,1015.15,2048.93,2970.97,2896.84,3114.58,348.95,320.60,12.49,0000 0000 0000 0000 000000
2013-10-25 00:47:16,0.06,1.47,0.00,24.71,26.48,29.10,5.83,29.42,1015.15,2048.93,2970.87,2896.57,3114.28,350.13,321.76,12.49,0000 0000 0000 0000 000000
2013-10-25 00:48:17,0.16,1.47,0.00,24.70,26.48,29.12,6.02,29.75,1015.15,2048.95,2970.47,2896.27,3114.11,350.60,322.43,12.50,0000 0000 0000 0000 000000
2013-10-25 00:49:17,0.14,1.47,0.00,24.70,26.48,29.13,5.83,29.54,1015.15,2048.95,2970.21,2896.12,3114.04,349.87,321.53,12.50,0000 0000 0000 0000 000000
2013-10-25 00:50:17,0.07,1.47,0.00,24.71,26.48,29.17,5.92,29.63,1015.15,2048.96,2970.07,2896.04,3114.01,350.03,321.78,12.51,0000 0000 0000 0000 000000
2013-10-25 00:51:18,0.05,1.47,0.00,24.70,26.48,29.19,5.79,29.63,1015.15,2048.97,2970.03,2896.01,3114.00,349.28,321.25,12.52,0000 0000 0000 0000 000000
2013-10-25 00:52:18,0.03,1.47,0.00,24.70,26.47,29.18,5.89,29.75,1015.15,2048.97,2970.00,2896.00,3113.96,349.81,321.48,12.52,0000 0000 0000 0000 000000
2013-10-25 00:53:18,0.01,1.47,0.00,24.69,26.47,29.11,5.98,29.92,1015.15,2048.96,2969.83,2895.99,3113.80,350.94,322.06,12.53,0000 0000 0000 0000 000000
2013-10-25 00:54:19,0.06,1.47,0.00,24.69,26.47,29.12,5.99,29.88,1015.15,2048.96,2969.38,2895.97,3113.39,349.98,321.64,12.53,0000 0000 0000 0000 000000
2013-10-25 00:55:19,0.14,1.47,0.00,24.71,26.47,29.14,5.83,29.63,1015.15,2048.97,2969.14,2895.59,3113.14,349.90,321.94,12.54,0000 0000 0000 0000 000000
2013-10-25 00:56:19,0.14,1.47,0.00,24.71,26.47,29.16,5.91,29.67,1015.15,2048.94,2969.05,2895.26,3113.05,350.63,322.22,12.54,0000 0000 0000 0000 000000
2013-10-25 00:57:20,0.10,1.47,0.00,24.73,26.47,29.14,5.82,29.58,1015.15,2048.95,2968.99,2895.11,3113.01,350.09,321.70,12.55,0000 0000 0000 0000 000000
2013-10-25 00:58:20,0.05,1.47,0.00,24.73,26.47,29.07,5.74,29.88,1015.15,2048.94,2968.90,2895.04,3113.00,349.97,321.58,12.56,0000 0000 0000 0000 000000
2013-10-25 00:59:20,0.02,1.47,0.00,24.73,26.47,29.15,5.82,29.50,1015.15,2048.95,2968.56,2895.01,3112.98,350.68,322.06,12.56,0000 0000 0000 0000 000000
2013-10-25 01:00:21,0.06,1.47,0.00,24.73,26.47,29.12,5.83,29.54,1015.15,2048.95,2968.24,2895.00,3112.92,349.96,321.58,12.57,0000 0000 0000 0000 000000
2013-10-25 01:01:21,0.08,1.47,0.00,24.72,26.47,29.13,5.90,29.63,1015.17,2048.97,2968.09,2894.99,3112.51,349.70,321.36,12.57,0000 0000 0000 0000 000000
2013-10-25 01:02:21,0.08,1.47,0.00,24.72,26.47,29.11,5.72,29.54,1015.16,2048.95,2968.03,2894.93,3112.19,349.83,321.21,12.58,0000 0000 0000 0000 000000
2013-10-25 01:03:21,0.06,1.47,0.00,24.71,26.47,29.11,5.73,29.79,1015.17,2048.96,2967.98,2894.65,3112.07,350.05,321.73,12.59,0000 0000 0000 0000 000000
2013-10-25 01:04:22,0.11,1.47,0.00,24.72,26.47,29.17,5.90,29.63,1015.18,2048.95,2967.64,2894.34,3112.01,350.11,321.73,12.59,0000 0000 0000 0000 000000
2013-10-25 01:05:22,0.13,1.47,0.00,24.72,26.47,29.09,5.98,29.71,1015.17,2048.91,2967.28,2894.16,3112.00,350.29,321.91,12.60,0000 0000 0000 0000 000000
2013-10-25 01:06:22,0.09,1.48,0.00,24.73,26.47,29.13,5.78,29.54,1015.15,2048.93,2967.13,2894.06,3112.00,349.80,321.91,12.60,0000 0000 0000 0000 000000
2013-10-25 01:07:23,0.05,1.48,0.00,24.74,26.47,29.12,5.92,29.50,1015.16,2048.94,2967.04,2894.02,3111.97,350.06,321.69,12.61,0000 0000 0000 0000 000000
2013-10-25 01:08:23,0.06,1.48,0.00,24.73,26.47,29.09,5.91,29.54,1015.16,2048.94,2966.36,2893.68,3111.31,350.30,322.10,12.61,0000 0000 0000 0000 000000
2013-10-25 01:09:23,0.25,1.48,0.00,24.73,26.47,29.09,5.89,29.71,1015.16,2048.93,2965.49,2893.24,3110.54,349.91,321.53,12.62,0000 0000 0000 0000 000000
2013-10-25 01:10:24,0.36,1.48,0.00,24.72,26.47,29.18,5.79,29.67,1015.16,2048.90,2965.17,2893.08,3110.20,348.82,320.55,12.63,0000 0000 0000 0000 000000
2013-10-25 01:11:24,0.13,1.48,0.00,24.74,26.47,29.14,5.98,29.67,1015.17,2048.91,2964.98,2893.02,3110.07,350.02,321.63,12.63,0000 0000 0000 0000 000000
2013-10-25 01:12:24,0.07,1.48,0.00,24.74,26.47,29.14,5.77,29.71,1015.17,2048.93,2964.58,2892.93,3110.02,350.28,322.12,12.64,0000 0000 0000 0000 000000
2013-10-25 01:13:24,0.10,1.48,0.00,24.75,26.47,29.11,5.62,29.50,1015.17,2048.95,2964.25,2892.73,3110.00,349.26,320.93,12.64,0000 0000 0000 0000 000000
2013-10-25 01:14:25,0.13,1.48,0.00,24.75,26.47,29.20,5.83,29.75,1015.17,2048.96,2964.09,2892.35,3110.00,349.37,321.03,12.65,0000 0000 0000 0000 000000
2013-10-25 01:15:25,0.11,1.48,0.00,24.76,26.47,29.12,6.03,29.83,1015.19,2048.96,2964.03,2892.14,3109.97,350.02,321.40,12.66,0000 0000 0000 0000 000000
2013-10-25 01:16:25,0.05,1.48,0.00,24.76,26.47,29.11,5.68,29.67,1015.18,2048.95,2964.01,2892.05,3109.92,349.14,321.04,12.66,0000 0000 0000 0000 000000
2013-10-25 01:17:26,0.04,1.48,0.00,24.74,26.47,29.15,5.69,29.58,1015.19,2048.97,2963.94,2892.02,3109.65,349.27,320.95,12.67,0000 0000 0000 0000 000000
2013-10-25 01:18:26,0.07,1.48,0.00,24.75,26.47,29.14,5.68,29.54,1015.19,2048.95,2963.66,2892.00,3109.35,348.37,320.40,12.67,0000 0000 0000 0000 000000
2013-10-25 01:19:26,0.08,1.48,0.00,24.75,26.47,29.07,6.00,29.79,1015.20,2048.95,2963.30,2892.00,3109.16,350.44,321.90,12.68,0000 0000 0000 0000 000000
2013-10-25 01:20:27,0.08,1.49,0.00,24.74,26.47,29.09,5.87,29.88,1015.22,2048.97,2963.11,2891.99,3109.05,349.59,320.93,12.69,0000 0000 0000 0000 000000
2013-10-25 01:21:27,0.05,1.49,0.00,24.75,26.47,29.07,6.02,29.88,1015.25,2048.95,2963.04,2891.95,3109.02,350.32,322.05,12.69,0000 0000 0000 0000 000000
2013-10-25 01:22:27,0.02,1.49,0.00,24.73,26.47,29.06,5.98,29.75,1015.34,2048.97,2962.99,2891.72,3109.00,349.09,320.84,12.70,0000 0000 0000 0000 000000
2013-10-25 01:23:27,0.09,1.49,0.00,24.73,26.47,29.08,5.86,29.58,1015.38,2048.97,2962.86,2891.36,3109.00,350.13,321.81,12.70,0000 0000 0000 0000 000000
2013-10-25 01:24:28,0.11,1.49,0.00,24.72,26.47,29.09,5.77,29.63,1015.48,2048.96,2962.56,2891.17,3108.99,349.16,321.19,12.71,0000 0000 0000 0000 000000
2013-10-25 01:25:28,0.08,1.49,0.00,24.73,26.47,29.11,6.07,29.75,1015.49,2048.96,2962.24,2891.07,3108.77,350.89,322.55,12.71,0000 0000 0000 0000 000000
2013-10-25 01:26:28,0.11,1.49,0.00,24.74,26.47,29.13,5.93,29.67,1015.48,2048.97,2962.08,2891.02,3108.37,351.09,322.55,12.72,0000 0000 0000 0000 000000
2013-10-25 01:27:29,0.10,1.49,0.00,24.72,26.47,29.11,5.88,29.71,1015.47,2048.98,2962.03,2891.00,3108.16,349.67,321.43,12.73,0000 0000 0000 0000 000000
2013-10-25 01:28:29,0.04,1.49,0.00,24.73,26.47,29.13,6.03,29.67,1015.56,2048.98,2962.01,2891.00,3108.08,350.32,322.04,12.73,0000 0000 0000 0000 000000
2013-10-25 01:29:29,0.01,1.49,0.00,24.73,26.47,29.14,5.92,29.54,1015.60,2048.97,2961.91,2890.98,3108.02,349.47,321.28,12.74,0000 0000 0000 0000 000000
2013-10-25 01:30:29,0.02,1.49,0.00,24.72,26.47,29.09,5.97,29.63,1015.61,2048.96,2961.53,2890.92,3108.00,349.96,321.73,12.74,0000 0000 0000 0000 000000
2013-10-25 01:31:30,0.07,1.49,0.00,24.72,26.47,29.08,5.96,30.08,1015.60,2048.97,2961.20,2890.75,3108.00,349.84,321.62,12.75,0000 0000 0000 0000 000000
2013-10-25 01:32:30,0.09,1.49,0.00,24.73,26.47,29.13,5.87,29.71,1015.58,2048.95,2961.10,2890.45,3107.97,350.54,322.24,12.76,0000 0000 0000 0000 000000
2013-10-25 01:33:30,0.09,1.49,0.00,24.73,26.47,29.07,5.92,29.67,1015.61,2048.96,2961.04,2890.26,3107.85,350.64,322.42,12.76,0000 0000 0000 0000 000000
2013-10-25 01:34:31,0.09,1.49,0.00,24.72,26.47,29.11,6.07,29.75,1015.58,2048.98,2961.00,2890.11,3107.52,350.44,322.24,12.77,0000 0000 0000 0000 000000
2013-10-25 01:35:31,0.09,1.49,0.00,24.71,26.47,29.17,5.98,29.92,1015.56,2048.98,2960.97,2890.04,3107.24,350.39,322.14,12.77,0000 0000 0000 0000 000000
2013-10-25 01:36:31,0.06,1.49,0.00,24.71,26.47,29.13,5.76,29.67,1015.59,2048.95,2960.67,2890.01,3107.09,349.54,321.36,12.78,0000 0000 0000 0000 000000
2013-10-25 01:37:31,0.06,1.49,0.00,24.73,26.47,29.15,5.91,29.71,1015.55,2048.94,2960.27,2890.00,3107.03,350.77,322.40,12.78,0000 0000 0000 0000 000000
2013-10-25 01:38:32,0.06,1.49,0.00,24.75,26.47,29.15,5.98,29.67,1015.60,2048.96,2960.11,2889.98,3107.01,350.31,322.02,12.79,0000 0000 0000 0000 000000
2013-10-25 01:39:32,0.03,1.49,0.00,24.75,26.47,29.14,5.92,29.63,1015.59,2048.96,2960.04,2889.90,3106.99,349.98,321.72,12.80,0000 0000 0000 0000 000000
2013-10-25 01:40:32,0.07,1.49,0.00,24.74,26.47,29.16,5.98,29.63,1015.58,2048.96,2959.97,2889.45,3106.81,349.61,321.75,12.80,0000 0000 0000 0000 000000
2013-10-25 01:41:32,0.13,1.49,0.00,24.74,26.47,29.08,5.92,30.04,1015.53,2048.91,2959.67,2889.18,3106.43,350.31,322.02,12.81,0000 0000 0000 0000 000000
2013-10-25 01:42:33,0.13,1.49,0.00,24.72,26.47,29.12,6.00,29.96,1015.49,2048.91,2959.27,2889.07,3106.18,350.27,321.70,12.81,0000 0000 0000 0000 000000
2013-10-25 01:43:33,0.11,1.50,0.00,24.72,26.47,29.14,5.93,29.88,1015.54,2048.88,2959.09,2889.03,3106.07,350.73,321.70,12.82,0000 0000 0000 0000 000000
2013-10-25 01:44:33,0.05,1.50,0.00,24.72,26.47,29.12,6.01,30.04,1015.50,2048.80,2959.03,2889.00,3106.02,350.25,321.93,12.83,0000 0000 0000 0000 000000
2013-10-25 01:45:34,-0.06,1.50,0.00,24.73,26.47,29.08,5.81,29.88,1015.53,2048.72,2958.99,2889.00,3105.99,349.07,320.89,12.83,0000 0000 0000 0000 000000
2013-10-25 01:46:34,-0.04,1.50,0.00,24.74,26.47,29.17,5.88,29.79,1015.53,2048.83,2958.97,2888.98,3105.98,349.86,321.60,12.84,0000 0000 0000 0000 000000
2013-10-25 01:47:34,0.08,1.50,0.00,24.74,26.47,29.09,5.72,29.54,1015.56,2048.89,2958.75,2888.94,3105.96,350.67,322.35,12.84,0000 0000 0000 0000 000000
2013-10-25 01:48:34,0.11,1.50,0.00,24.75,26.47,29.10,5.84,29.71,1015.52,2048.94,2958.38,2888.87,3105.87,349.88,321.61,12.85,0000 0000 0000 0000 000000
2013-10-25 01:49:35,0.13,1.50,0.00,24.75,26.47,29.14,6.01,29.63,1015.49,2048.93,2958.19,2888.63,3105.58,350.58,322.23,12.86,0000 0000 0000 0000 000000
2013-10-25 01:50:35,0.13,1.50,0.00,24.77,26.47,29.17,5.89,29.63,1015.61,2048.95,2958.07,2888.31,3105.34,350.57,322.25,12.86,0000 0000 0000 0000 000000
2013-10-25 01:51:36,0.14,1.50,0.00,24.76,26.47,29.15,6.03,30.00,1015.61,2048.97,2958.02,2888.12,3105.14,349.99,321.73,12.87,0000 0000 0000 0000 000000
2013-10-25 01:52:36,0.08,1.50,0.00,24.77,26.47,29.13,5.91,29.63,1015.63,2048.96,2958.00,2888.04,3105.05,350.21,321.93,12.87,0000 0000 0000 0000 000000
2013-10-25 01:53:36,0.02,1.50,0.00,24.78,26.47,29.13,5.86,29.67,1015.64,2048.95,2957.93,2888.01,3105.01,350.28,322.06,12.88,0000 0000 0000 0000 000000
2013-10-25 01:54:36,0.03,1.50,0.00,24.79,26.47,29.18,5.88,29.71,1015.64,2048.95,2957.52,2888.00,3105.00,350.13,321.94,12.88,0000 0000 0000 0000 000000
2013-10-25 01:55:37,0.06,1.50,0.00,24.82,26.47,29.06,5.93,29.58,1015.64,2048.95,2957.22,2888.00,3104.99,350.32,321.92,12.89,0000 0000 0000 0000 000000
2013-10-25 01:56:37,0.04,1.50,0.00,24.79,26.47,29.14,5.75,29.63,1015.64,2048.95,2957.08,2888.00,3104.97,349.82,321.73,12.90,0000 0000 0000 0000 000000
2013-10-25 01:57:37,0.03,1.50,0.00,24.78,26.47,29.08,5.98,29.58,1015.64,2048.97,2957.03,2887.94,3104.83,349.30,321.08,12.90,0000 0000 0000 0000 000000
2013-10-25 01:58:38,0.06,1.50,0.00,24.80,26.47,29.17,5.76,29.50,1015.64,2048.97,2956.98,2887.71,3104.50,349.62,321.40,12.91,0000 0000 0000 0000 000000
2013-10-25 01:59:38,0.14,1.50,0.00,24.80,26.47,29.12,5.75,29.71,1015.66,2048.97,2956.75,2887.33,3104.21,349.60,321.18,12.91,0000 0000 0000 0000 000000
2013-10-25 02:00:38,0.15,1.50,0.00,24.78,26.47,29.15,5.81,29.75,1015.65,2048.96,2956.44,2887.15,3104.09,349.97,321.53,12.92,0000 0000 0000 0000 000000
2013-10-25 02:01:38,0.10,1.50,0.00,24.78,26.47,29.13,5.96,29.58,1015.64,2048.94,2956.17,2887.05,3104.03,349.55,321.46,12.93,0000 0000 0000 0000 000000
2013-10-25 02:02:39,0.06,1.50,0.00,24.78,26.47,29.09,5.83,29.63,1015.64,2048.90,2956.08,2887.01,3104.01,349.79,321.53,12.93,0000 0000 0000 0000 000000
2013-10-25 02:03:39,-0.02,1.50,0.00,24.78,26.47,29.06,5.82,29.88,1015.65,2048.92,2956.03,2887.00,3104.00,350.13,321.84,12.94,0000 0000 0000 0000 000000
2013-10-25 02:04:39,0.03,1.50,0.00,24.76,26.47,29.07,5.91,29.75,1015.65,2048.96,2955.99,2887.00,3103.96,349.93,321.87,12.94,0000 0000 0000 0000 000000
2013-10-25 02:05:40,0.02,1.50,0.00,24.77,26.47,29.14,5.90,29.63,1015.67,2048.93,2955.90,2886.99,3103.84,350.33,322.04,12.95,0000 0000 0000 0000 000000
2013-10-25 02:06:40,0.03,1.50,0.00,24.79,26.47,29.09,5.77,29.38,1015.72,2048.95,2955.53,2886.88,3103.56,349.30,321.10,12.95,0000 0000 0000 0000 000000
2013-10-25 02:07:40,0.14,1.51,0.00,24.76,26.47,29.17,5.93,29.67,1015.72,2048.93,2955.20,2886.50,3103.25,349.57,321.37,12.96,0000 0000 0000 0000 000000
2013-10-25 02:08:40,0.16,1.51,0.00,24.80,26.47,29.13,6.08,29.54,1015.78,2048.90,2955.07,2886.22,3103.10,349.85,321.60,12.97,0000 0000 0000 0000 000000
2013-10-25 02:09:40,0.10,1.51,0.00,24.79,26.47,29.16,5.87,29.50,1015.81,2048.91,2955.02,2886.09,3103.03,350.01,321.90,12.97,0000 0000 0000 0000 000000
2013-10-25 02:10:41,0.05,1.51,0.00,24.79,26.47,29.16,5.79,29.42,1015.89,2048.91,2954.93,2886.03,3103.00,350.09,321.70,12.98,0000 0000 0000 0000 000000
2013-10-25 02:11:41,0.02,1.51,0.00,24.78,26.47,29.10,5.93,29.63,1015.93,2048.90,2954.65,2886.01,3102.99,349.99,321.41,12.98,0000 0000 0000 0000 000000
2013-10-25 02:12:41,0.05,1.51,0.00,24.79,26.47,29.16,5.76,29.46,1016.03,2048.94,2954.33,2886.00,3102.97,350.35,322.13,12.99,0000 0000 0000 0000 000000
2013-10-25 02:13:41,0.08,1.51,0.00,24.76,26.47,29.13,5.97,29.83,1016.08,2048.98,2954.15,2885.97,3102.81,350.56,322.19,13.00,0000 0000 0000 0000 000000
2013-10-25 02:14:42,0.09,1.51,0.00,24.75,26.47,29.11,5.78,29.79,1016.11,2048.97,2954.05,2885.96,3102.43,349.57,321.51,13.00,0000 0000 0000 0000 000000
2013-10-25 02:15:42,0.06,1.51,0.00,24.74,26.47,29.16,5.96,29.75,1016.11,2048.96,2954.01,2885.84,3102.18,350.58,322.44,13.01,0000 0000 0000 0000 000000
2013-10-25 02:16:42,0.07,1.51,0.00,24.77,26.47,29.17,6.02,29.71,1016.10,2048.95,2953.91,2885.43,3102.08,349.53,321.44,13.01,0000 0000 0000 0000 000000
2013-10-25 02:17:42,0.13,1.51,0.00,24.79,26.47,29.15,5.89,29.58,1016.09,2048.93,2953.59,2885.17,3102.03,350.69,322.49,13.02,0000 0000 0000 0000 000000
2013-10-25 02:18:43,0.12,1.51,0.00,24.76,26.47,29.16,5.91,29.63,1016.10,2048.91,2953.30,2885.07,3102.01,349.92,322.28,13.03,0000 0000 0000 0000 000000
2013-10-25 02:19:43,0.05,1.51,0.00,24.77,26.47,29.15,6.05,29.83,1016.10,2048.93,2953.15,2885.02,3102.00,350.62,322.95,13.03,0000 0000 0000 0000 000000
2013-10-25 02:20:43,0.05,1.51,0.00,24.77,26.47,29.20,5.92,29.50,1016.10,2048.95,2953.05,2885.00,3101.97,349.05,321.01,13.04,0000 0000 0000 0000 000000
2013-10-25 02:21:44,0.03,1.51,0.00,24.75,26.47,29.14,5.98,29.88,1016.12,2048.96,2953.01,2885.00,3101.91,349.87,321.78,13.04,0000 0000 0000 0000 000000
2013-10-25 02:22:44,0.02,1.51,0.00,24.78,26.47,29.08,5.73,29.54,1016.12,2048.96,2952.98,2885.00,3101.67,349.18,321.12,13.05,0000 0000 0000 0000 000000
2013-10-25 02:23:44,0.04,1.51,0.00,24.78,26.47,29.18,5.99,29.92,1016.13,2048.94,2952.81,2884.99,3101.28,349.72,321.62,13.05,0000 0000 0000 0000 000000
2013-10-25 02:24:44,0.06,1.51,0.00,24.77,26.47,29.21,5.96,29.79,1016.11,2048.90,2952.41,2884.89,3101.11,348.47,320.48,13.06,0000 0000 0000 0000 000000
2013-10-25 02:25:45,0.10,1.51,0.00,24.78,26.47,29.21,5.99,29.71,1016.13,2048.90,2952.15,2884.63,3101.04,350.19,322.04,13.07,0000 0000 0000 0000 000000
2013-10-25 02:26:45,0.10,1.51,0.00,24.76,26.47,29.17,6.10,29.83,1016.13,2048.89,2952.05,2884.29,3101.01,350.15,322.04,13.07,0000 0000 0000 0000 000000
2013-10-25 02:27:45,0.09,1.51,0.00,24.78,26.47,29.18,6.02,29.75,1016.13,2048.85,2952.01,2884.11,3100.99,350.24,322.09,13.08,0000 0000 0000 0000 000000
2013-10-25 02:28:45,0.01,1.51,0.00,24.77,26.47,29.11,6.03,29.75,1016.13,2048.86,2951.96,2884.04,3100.94,350.49,322.41,13.08,0000 0000 0000 0000 000000
2013-10-25 02:29:46,0.04,1.51,0.00,24.79,26.47,29.10,5.78,29.71,1016.14,2048.92,2951.64,2884.01,3100.88,349.38,321.30,13.09,0000 0000 0000 0000 000000
2013-10-25 02:30:46,0.11,1.52,0.00,24.81,26.47,29.10,5.87,29.54,1016.14,2048.94,2951.37,2884.00,3100.56,350.14,322.10,13.10,0000 0000 0000 0000 000000
2013-10-25 02:31:46,0.12,1.52,0.00,24.80,26.47,29.16,5.84,29.42,1016.14,2048.95,2951.15,2883.99,3100.26,349.65,321.96,13.10,0000 0000 0000 0000 000000
2013-10-25 02:32:47,0.08,1.52,0.00,24.79,26.47,29.19,5.88,29.54,1016.13,2048.95,2951.05,2883.99,3100.10,350.12,322.18,13.11,0000 0000 0000 0000 000000
2013-10-25 02:33:47,0.03,1.52,0.00,24.79,26.47,29.17,5.88,29.50,1016.13,2048.92,2951.01,2883.82,3100.04,350.63,322.44,13.11,0000 0000 0000 0000 000000
2013-10-25 02:34:47,0.01,1.52,0.00,24.79,26.48,29.16,6.01,29.71,1016.16,2048.85,2950.98,2883.48,3100.00,349.96,321.84,13.12,0000 0000 0000 0000 000000
2013-10-25 02:35:47,0.04,1.52,0.00,24.80,26.48,29.10,5.83,29.50,1016.15,2048.86,2950.75,2883.27,3099.99,350.21,322.16,13.12,0000 0000 0000 0000 000000